Simultaneous Nadir Overpasses (SNOs) Predictions

Prediction of SNOs near US between AQUA and NPP Satellite Orbit:

Table of predicted SNOs near US for the next 10.0 days since TLE Epoch: 3/12/2022
Index Date (AQUA) Time (AQUA) AQUA Lat,Lon Date (NPP) Time (NPP) NPP Lat,Lon Distance(km) Time Diff (sec)
1 03/14/2022 06:29:59 44.74, -65.04 03/14/2022 06:31:08 45.25, -67.61 210.30 69
2 03/14/2022 08:07:25 49.90, -87.75 03/14/2022 08:11:07 50.49, -90.80 226.56 222
3 03/16/2022 19:05:26 49.94, -91.96 03/16/2022 19:01:24 49.55, -94.35 177.47 242
4 03/16/2022 20:44:19 49.95,-116.68 03/16/2022 20:42:52 49.44,-119.68 222.91 87
5 03/19/2022 08:33:31 21.74,-100.81 03/19/2022 08:25:39 21.92,-101.58 81.40 472
6 03/19/2022 10:09:52 30.88,-123.25 03/19/2022 10:04:32 31.10,-124.54 124.90 320
